Terminal Aerodrome Forecast
Issued by NWS

Home | Current Version | Previous Version | Text Only | Print | Product List | Glossary On
Versions: 1 2 3 4 5 6 7 8 9 10 11 12
122
FTUS45 KRIW 062108 AAA
TAFCPR
TAF AMD
KCPR 062108Z 0621/0718 21032G45KT P6SM SCT250
      TEMPO 0621/0701 3SM BLSN
     FM070200 24018G28KT P6SM SCT250
     FM070600 24010KT P6SM SCT250=

USA.gov is the U.S. government's official web portal to all federal, state and local government web resources and services.